Weather History for Togiak, AK

Change the Weather History Date:

Tuesday, April 30, 2013

  Actual Average Record
Temperature  
Mean Temperature 28 °F -  
Max Temperature 35 °F 38 °F 66 °F (2005)
Min Temperature 21 °F 28 °F 12 °F (2006)
Degree Days  
Heating Degree Days 37    
Moisture  
Dew Point 23 °F    
Average Humidity 79    
Maximum Humidity 93    
Minimum Humidity 65    
Precipitation  
Precipitation 0.00 in - - ()
Sea Level Pressure  
Sea Level Pressure 29.94 in    
Wind  
Wind Speed 9 mph (North)    
Max Wind Speed 14 mph    
Max Gust Speed -    
Visibility 10 miles    
Events      
Averages and records for this station are not official NWS values.
T = Trace of Precipitation, MM = Missing Value Source: NWS Daily Summary

Daily Weather History Graph

Daily Weather History Graph

Search for Another Location

Airport:

Trip Planner

Search our weather history database for the weather conditions in past years. The results will help you decide how hot, cold, wet, or windy it might be!

Date:

Astronomy

Apr. 30, 2013 Rise Set
Actual Time 6:45 AM AKDT 10:33 PM AKDT
Civil Twilight 5:55 AM AKDT 11:24 PM AKDT
Nautical Twilight 4:40 AM AKDT 12:41 AM AKDT
Astronomical Twilight 3:11 AM AKDT 2:06 AM AKDT
Moon 3:21 AM AKDT (4/30) 11:15 AM AKDT (4/30)
Length of Visible Light 17h 29m
Length of Day
15h 48m
Waning Gibbous, 68% of the Moon is Illuminated
Apr 30
Waning Gibbous
May 2
Last Quarter
May 9
New
May 17
First Quarter
May 24
Full

Hourly Weather History & Observations

Time (AKDT) Temp. Windchill Dew Point Humidity Pressure Visibility Wind Dir Wind Speed Gust Speed Precip Events Conditions
1:36 AM 26.6 °F 20.0 °F 21.2 °F 80% 30.13 in 10.0 mi NNE 5.8 mph - N/A   Clear
1:56 AM 24.8 °F 19.1 °F 21.2 °F 86% 30.12 in 10.0 mi NNE 4.6 mph - N/A   Clear
4:16 AM 24.8 °F 13.4 °F 21.2 °F 86% 30.08 in 10.0 mi North 12.7 mph - N/A   Clear
4:36 AM 24.8 °F 16.1 °F 19.4 °F 80% 30.08 in 10.0 mi North 8.1 mph - N/A   Clear
4:56 AM 23.0 °F 14.7 °F 19.4 °F 86% 30.08 in 10.0 mi North 6.9 mph - N/A   Clear
5:16 AM 21.2 °F 13.6 °F 19.4 °F 93% 30.08 in 10.0 mi NE 5.8 mph - N/A   Clear
5:36 AM 23.0 °F 12.4 °F 19.4 °F 86% 30.07 in 10.0 mi North 10.4 mph - N/A   Clear
5:56 AM 21.2 °F 11.7 °F 17.6 °F 86% 30.07 in 10.0 mi North 8.1 mph - N/A   Clear
6:16 AM 21.2 °F 10.9 °F 19.4 °F 93% 30.06 in 10.0 mi NNW 9.2 mph - N/A   Clear
6:36 AM 21.2 °F 10.9 °F 19.4 °F 93% 30.06 in 10.0 mi North 9.2 mph - N/A   Clear
6:56 AM 21.2 °F 11.7 °F 19.4 °F 93% 30.05 in 10.0 mi North 8.1 mph - N/A   Clear
7:16 AM 21.2 °F 11.7 °F 17.6 °F 86% 30.05 in 10.0 mi North 8.1 mph - N/A   Clear
7:36 AM 21.2 °F 13.6 °F 17.6 °F 86% 30.04 in 10.0 mi North 5.8 mph - N/A   Clear
7:56 AM 21.2 °F - 17.6 °F 86% 30.04 in 10.0 mi Calm Calm - N/A   Clear
8:16 AM 23.0 °F 13.9 °F 19.4 °F 86% 30.04 in 10.0 mi North 8.1 mph - N/A   Clear
8:36 AM 21.2 °F 11.7 °F 19.4 °F 93% 30.03 in 10.0 mi North 8.1 mph - N/A   Clear
8:56 AM 23.0 °F 17.0 °F 19.4 °F 86% 30.03 in 10.0 mi NNE 4.6 mph - N/A   Clear
9:16 AM 24.8 °F 16.9 °F 21.2 °F 86% 30.03 in 10.0 mi North 6.9 mph - N/A   Clear
9:36 AM 23.0 °F 13.9 °F 19.4 °F 86% 30.03 in 10.0 mi North 8.1 mph - N/A   Clear
9:56 AM 24.8 °F 15.3 °F 21.2 °F 86% 30.02 in 10.0 mi North 9.2 mph - N/A   Clear
10:16 AM 24.8 °F 15.3 °F 21.2 °F 86% 30.02 in 10.0 mi North 9.2 mph - N/A   Clear
10:36 AM 26.6 °F 17.5 °F 23.0 °F 86% 30.01 in 10.0 mi North 9.2 mph - N/A   Clear
10:56 AM 26.6 °F 16.2 °F 23.0 °F 86% 30.01 in 10.0 mi North 11.5 mph - N/A   Clear
11:16 AM 28.4 °F 17.5 °F 23.0 °F 80% 30.00 in 10.0 mi North 13.8 mph - N/A   Clear
11:36 AM 28.4 °F 17.5 °F 24.8 °F 86% 30.00 in 10.0 mi North 13.8 mph - N/A   Clear
11:56 AM 30.2 °F 20.8 °F 24.8 °F 80% 30.00 in 10.0 mi North 11.5 mph - N/A   Clear
12:16 PM 30.2 °F 21.3 °F 24.8 °F 80% 29.99 in 10.0 mi North 10.4 mph - N/A   Clear
12:36 PM 30.2 °F 21.9 °F 24.8 °F 80% 29.99 in 10.0 mi North 9.2 mph - N/A   Clear
12:56 PM 30.2 °F 21.3 °F 24.8 °F 80% 29.99 in 10.0 mi North 10.4 mph - N/A   Scattered Clouds
1:16 PM 32.0 °F 23.6 °F 26.6 °F 80% 29.98 in 10.0 mi North 10.4 mph - N/A   Mostly Cloudy
1:36 PM 32.0 °F 24.2 °F 24.8 °F 75% 29.97 in 7.0 mi North 9.2 mph - N/A   Overcast
1:56 PM 33.8 °F 25.8 °F 24.8 °F 70% 29.97 in 10.0 mi NNE 10.4 mph - N/A   Overcast
2:16 PM 33.8 °F 25.3 °F 24.8 °F 70% 29.96 in 10.0 mi North 11.5 mph - N/A   Scattered Clouds
2:36 PM 33.8 °F 25.3 °F 24.8 °F 70% 29.96 in 10.0 mi North 11.5 mph - N/A   Partly Cloudy
2:56 PM 33.8 °F 26.4 °F 24.8 °F 70% 29.95 in 10.0 mi NNE 9.2 mph - N/A   Mostly Cloudy
3:16 PM 33.8 °F 25.8 °F 24.8 °F 70% 29.94 in 10.0 mi North 10.4 mph - N/A   Overcast
3:36 PM 33.8 °F 25.8 °F 24.8 °F 70% 29.94 in 10.0 mi North 10.4 mph - N/A   Overcast
3:56 PM 33.8 °F 26.4 °F 24.8 °F 70% 29.93 in 10.0 mi North 9.2 mph - N/A   Scattered Clouds
4:16 PM 33.8 °F 24.8 °F 26.6 °F 75% 29.92 in 10.0 mi North 12.7 mph - N/A   Partly Cloudy
4:36 PM 33.8 °F 25.3 °F 26.6 °F 75% 29.91 in 10.0 mi North 11.5 mph - N/A   Clear
4:56 PM 33.8 °F 25.8 °F 24.8 °F 70% 29.90 in 10.0 mi North 10.4 mph - N/A   Clear
5:16 PM 33.8 °F 26.4 °F 26.6 °F 75% 29.89 in 10.0 mi North 9.2 mph - N/A   Clear
5:36 PM 33.8 °F 27.0 °F 26.6 °F 75% 29.88 in 10.0 mi NNE 8.1 mph - N/A   Partly Cloudy
5:56 PM 35.6 °F 27.5 °F 26.6 °F 70% 29.87 in 10.0 mi NNE 11.5 mph - N/A   Partly Cloudy
6:16 PM 35.6 °F 26.6 °F 24.8 °F 65% 29.86 in 10.0 mi NNE 13.8 mph - N/A   Clear
6:36 PM 35.6 °F 27.1 °F 24.8 °F 65% 29.85 in 10.0 mi NNE 12.7 mph - N/A   Clear
6:56 PM 35.6 °F 27.1 °F 26.6 °F 70% 29.84 in 10.0 mi NE 12.7 mph - N/A   Clear
7:16 PM 35.6 °F 27.1 °F 24.8 °F 65% 29.83 in 10.0 mi NE 12.7 mph - N/A   Clear
7:36 PM 33.8 °F 24.8 °F 26.6 °F 75% 29.82 in 10.0 mi NE 12.7 mph - N/A   Clear
7:56 PM 33.8 °F 25.3 °F 24.8 °F 70% 29.82 in 10.0 mi NE 11.5 mph - N/A   Clear
8:16 PM 33.8 °F 25.3 °F 24.8 °F 70% 29.81 in 10.0 mi NE 11.5 mph - N/A   Clear
8:36 PM 33.8 °F 25.8 °F 24.8 °F 70% 29.80 in 10.0 mi NE 10.4 mph - N/A   Clear
8:56 PM 33.8 °F 27.0 °F 24.8 °F 70% 29.80 in 10.0 mi NE 8.1 mph - N/A   Clear
9:16 PM 33.8 °F 26.4 °F 24.8 °F 70% 29.79 in 10.0 mi NE 9.2 mph - N/A   Clear
9:36 PM 32.0 °F 25.6 °F 24.8 °F 75% 29.79 in 10.0 mi NE 6.9 mph - N/A   Clear
9:56 PM 32.0 °F 24.8 °F 24.8 °F 75% 29.78 in 10.0 mi NE 8.1 mph - N/A   Clear
10:16 PM 30.2 °F 23.4 °F 23.0 °F 75% 29.78 in 10.0 mi NNE 6.9 mph - N/A   Clear
10:36 PM 26.6 °F 19.1 °F 23.0 °F 86% 29.78 in 10.0 mi North 6.9 mph - N/A   Clear
10:56 PM 26.6 °F 17.5 °F 23.0 °F 86% 29.77 in 10.0 mi North 9.2 mph - N/A   Clear
11:16 PM 26.6 °F 16.8 °F 23.0 °F 86% 29.77 in 10.0 mi North 10.4 mph - N/A   Clear
11:36 PM 26.6 °F 18.2 °F 23.0 °F 86% 29.77 in 10.0 mi North 8.1 mph - N/A   Clear
11:56 PM 24.8 °F 16.1 °F 21.2 °F 86% 29.76 in 10.0 mi North 8.1 mph - N/A   Clear